TimeMDT,TemperatureF,Dew PointF,Humidity,Sea Level PressureIn,VisibilityMPH,Wind Direction,Wind SpeedMPH,Gust SpeedMPH,PrecipitationIn,Events,Conditions,WindDirDegrees,DateUTC
12:00 AM,44,20,24,29.77,,ESE,5.8,,,,,110,2012-10-13 06:00:00
12:00 AM,43.9,19.6,38,29.77,-9999.0,ESE,5.8,-,N/A,,Unknown,110,2012-10-13 06:00:00
1:00 AM,19.8,7.3,59,29.77,-9999.0,ESE,5.8,-,N/A,,Unknown,120,2012-10-13 07:00:00
2:00 AM,36.3,33.8,91,29.77,-9999.0,ESE,4.6,-,N/A,,Unknown,110,2012-10-13 08:00:00
3:00 AM,49.8,49.8,100,29.75,-9999.0,ESE,4.6,-,N/A,,Unknown,120,2012-10-13 09:00:00
5:00 AM,18.9,18.9,100,29.77,-9999.0,ESE,4.6,-,N/A,,Unknown,120,2012-10-13 11:00:00
6:00 AM,26,24,86,29.77,,ESE,4.6,,,,,120,2012-10-13 12:00:00
6:00 AM,25.5,23.5,92,29.77,-9999.0,ESE,4.6,-,N/A,,Unknown,120,2012-10-13 12:00:00
7:00 AM,18.7,14.2,83,29.77,-9999.0,ESE,3.5,-,N/A,,Unknown,120,2012-10-13 13:00:00
8:00 AM,-9999,-9999,N/A,29.73,-9999.0,ESE,4.6,-,N/A,,Unknown,110,2012-10-13 14:00:00
10:00 AM,25.5,23.2,91,29.75,-9999.0,ESE,6.9,-,N/A,,Unknown,120,2012-10-13 16:00:00
11:00 AM,29.7,14.2,53,29.74,-9999.0,ESE,8.1,-,N/A,,Unknown,120,2012-10-13 17:00:00
12:00 PM,10,-14,17,29.77,,SE,8.1,,,,,130,2012-10-13 18:00:00
12:00 PM,10.4,-14.1,32,29.77,-9999.0,SE,8.1,-,N/A,,Unknown,130,2012-10-13 18:00:00
1:00 PM,64.6,39.2,39,29.71,-9999.0,ESE,9.2,-,N/A,,Unknown,120,2012-10-13 19:00:00
2:00 PM,31.3,24.6,76,29.72,-9999.0,SE,9.2,-,N/A,,Unknown,130,2012-10-13 20:00:00
3:00 PM,10.2,-19.3,25,29.73,-9999.0,ESE,9.2,-,N/A,,Unknown,120,2012-10-13 21:00:00
4:00 PM,31.1,26.1,82,29.72,-9999.0,ESE,9.2,-,N/A,,Unknown,120,2012-10-13 22:00:00
6:00 PM,37.9,15.4,40,29.71,-9999.0,ESE,8.1,-,N/A,,Unknown,110,2012-10-14 00:00:00
7:00 PM,28.8,27.5,95,29.72,-9999.0,ESE,6.9,-,N/A,,Unknown,120,2012-10-14 01:00:00
8:00 PM,28.6,27.0,94,29.69,-9999.0,ESE,5.8,-,N/A,,Unknown,120,2012-10-14 02:00:00
9:00 PM,28.9,27.7,95,29.71,-9999.0,ESE,5.8,-,N/A,,Unknown,120,2012-10-14 03:00:00
10:00 PM,0.5,-31.5,21,29.72,-9999.0,SE,4.6,-,N/A,,Unknown,130,2012-10-14 04:00:00
11:00 PM,28.6,27.7,96,29.71,-9999.0,SE,4.6,-,N/A,,Unknown,130,2012-10-14 05:00:00